Location: Aboncourt
(47.7710°N, 5.9826°E)
Time: 03:18:28
(UTC+00:00)

NOSS 3-3 (C) - Pass Details

Date: 05 July 2020
Orbit: 824 x 1388 km, 63.4° (Epoch: 01 August)

Event Time Altitude Azimuth Distance (km) Brightness Sun altitude
Rises 22:16:08 0° 231° (SW) 3,431 6.7 -17.0°
Reaches altitude 10° 22:18:31 10° 235° (SW) 2,544 6.0 -17.2°
Maximum altitude 22:24:21 63° 316° (NW) 1,069 4.4 -17.5°
Drops below altitude 10° 22:31:03 10° 38° (NE) 2,899 6.9 -17.8°
Sets 22:33:56 0° 42° (NE) 3,948 7.6 -18.0°
